Погода в Украинском

Украина / Харьковская область     50°10′02″N   36°58′21″E
темп.,
°C
ветер,
м/с
пор.,
м/с
влажн.,
%
обл.,
%
осадки,
мм/ч
давл.,
гПа
погр.,
м
8 марта, пн
пн823:00−1зюз91689100 0.1 1009978
02:000зюз8138598 0.2 1009917
05:00−1зюз81390100 0.3 1008798
08:000зюз81383100 0.4 1007908
11:00+1з8118599 0.3 1008890
14:00+2з71057100 0.6 10091622
17:000зсз496498 0.1 1010384
20:00−2зсз387896 0.1 1011357
9 марта, вт
вт923:00−3зсз268341 0.0 1011244
02:00−3з358153 0.0 1012458
05:00−3сз468299 0.1 1013582
08:00−4сз686798 0.1 1014781
11:00−3ссз675883 0.0 10161200
14:00−3ссз785692 0.1 10181288
17:00−5ссз6761100 0.0 10201059
20:00−7ссз576490 0.0 1023901
10 марта, ср
ср1023:00−7ссз456689 0.0 1024901
02:00−8сз466789 0.0 1025720
05:00−9сз34720 0.0 1026432
08:00−8сз236528 0.0 1026434
11:00−5сз224462 0.0 1026752
14:00−3з233880 0.0 10251029
17:00−3з124462 0.0 1024180
20:00−4зсз125032 0.0 102546
11 марта, чт
чт1123:00−4ссз125656 0.0 102532
02:00−5ссв226342 0.0 102634
05:00−6ссв22712 0.0 102639
08:00−5всв34676 0.0 1027347
11:00−4в445623 0.0 1028696
14:00−2в335158 0.0 10281004
17:00−4всв455898 0.0 1028667
20:00−5вюв475577 0.0 1030522
12 марта, пт
пт1223:00−6вюв575154 0.0 1031552
02:00−6юв475133 0.0 1031474
05:00−7юв59500 0.0 1031412
08:00−6ююв610445 0.0 1031537
11:00−2ю794275 0.0 1029922
14:00−1ююв8104087 0.0 10271271
17:00−1ю71143100 0.0 10261192
20:00−2ю81241100 0.0 10251114